Coffeyville, KS

9:34 PM CDT on April 28, 2017 (GMT -0500)
Coffeyville Municipal

Weather History for KCFV - January, 2014

Change the Weather History Date:

Friday, January 31, 2014

  Actual Average Record
Temperature  
Mean Temperature 32 °F -  
Max Temperature 36 °F 44 °F 71 °F (2009)
Min Temperature 28 °F 25 °F 12 °F (2000)
Degree Days  
Heating Degree Days 33    
Moisture  
Dew Point 27 °F    
Average Humidity 87    
Maximum Humidity 96    
Minimum Humidity 59    
Precipitation  
Precipitation 0.00 in - - ()
Sea Level Pressure  
Sea Level Pressure 29.91 in    
Wind  
Wind Speed 11 mph (NNE)    
Max Wind Speed 16 mph    
Max Gust Speed 22 mph    
Visibility 4 miles    
Events Rain    
Averages and records for this station are not official NWS values.
T = Trace of Precipitation, MM = Missing Value Source: NWS Daily Summary

Daily Weather History Graph

Daily Weather History Graph

Search for Another Location

Airport or City:

Trip Planner

Search our weather history database for the weather conditions in past years. The results will help you decide how hot, cold, wet, or windy it might be!

Date:

Astronomy

Jan. 31, 2014 Rise Set
Actual Time 7:25 AM CST 5:46 PM CST
Civil Twilight 6:58 AM CST 6:13 PM CST
Nautical Twilight 6:27 AM CST 6:44 PM CST
Astronomical Twilight 5:56 AM CST 7:15 PM CST
Moon 7:38 AM CST (1/31) 7:08 PM CST (1/31)
Length of Visible Light 11h 15m
Length of Day
10h 20m
New Moon, 1% of the Moon is Illuminated
Jan 31
New Moon
Feb 6
First Quarter
Feb 14
Full
Feb 22
Last Quarter
Mar 1
New

Hourly Weather History & Observations

Time (CST) Temp. Windchill Dew Point Humidity Pressure Visibility Wind Dir Wind Speed Gust Speed Precip Events Conditions
12:52 AM 30.0 °F - 21.0 °F 69% 29.93 in 10.0 mi Calm Calm - N/A   Clear
1:52 AM 35.1 °F 27.4 °F 24.1 °F 64% 29.92 in 10.0 mi North 10.4 mph - N/A   Clear
2:52 AM 36.0 °F 28.5 °F 23.0 °F 59% 29.91 in 10.0 mi ENE 10.4 mph - N/A   Overcast
3:52 AM 36.0 °F 27.5 °F 23.0 °F 59% 29.91 in 10.0 mi NE 12.7 mph - N/A   Overcast
4:52 AM 35.1 °F 26.4 °F 23.0 °F 61% 29.90 in 10.0 mi NE 12.7 mph - N/A   Overcast
5:35 AM 35.1 °F 25.9 °F 23.0 °F 61% 29.90 in 10.0 mi NE 13.8 mph - N/A   Overcast
5:52 AM 35.1 °F 25.2 °F 23.0 °F 61% 29.91 in 10.0 mi NE 16.1 mph - N/A   Overcast
6:52 AM 34.0 °F 24.2 °F 21.9 °F 61% 29.92 in 10.0 mi ENE 15.0 mph - N/A   Overcast
7:42 AM 33.1 °F 22.6 °F 24.1 °F 70% 29.92 in 8.0 mi NE 16.1 mph - N/A   Overcast
7:52 AM 32.0 °F 21.2 °F 24.1 °F 73% 29.94 in 7.0 mi NE 16.1 mph - N/A   Overcast
8:22 AM 32.0 °F 21.2 °F 26.1 °F 79% 29.93 in 4.0 mi NE 16.1 mph - N/A   Haze
8:40 AM 30.9 °F 20.2 °F 27.0 °F 85% 29.94 in 2.5 mi NE 15.0 mph - N/A   Overcast
8:52 AM 30.9 °F 19.8 °F 27.0 °F 85% 29.96 in 1.8 mi NE 16.1 mph - 0.00 in   Overcast
9:23 AM 30.0 °F 20.0 °F 28.0 °F 92% 29.95 in 1.2 mi NNE 12.7 mph 21.9 mph 0.00 in Rain Light Freezing Rain
9:52 AM 30.0 °F 19.5 °F 28.0 °F 92% 29.96 in 1.2 mi NE 13.8 mph - 0.00 in Rain Light Freezing Rain
10:01 AM 30.0 °F 20.0 °F 28.0 °F 92% 29.95 in 1.2 mi NE 12.7 mph - 0.00 in Rain Light Freezing Rain
10:10 AM 30.0 °F 20.0 °F 28.0 °F 92% 29.95 in 1.5 mi NE 12.7 mph - 0.00 in   Overcast
10:21 AM 30.0 °F 21.1 °F 28.0 °F 92% 29.95 in 1.5 mi NNE 10.4 mph - 0.00 in Rain Light Freezing Rain
10:52 AM 30.9 °F 21.7 °F 28.9 °F 92% 29.97 in 1.5 mi NE 11.5 mph 21.9 mph 0.00 in Rain Light Freezing Rain
11:52 AM 30.9 °F 21.2 °F 28.9 °F 92% 29.96 in 1.5 mi NNE 12.7 mph - 0.00 in   Overcast
12:17 PM 30.0 °F 19.5 °F 28.0 °F 92% 29.92 in 1.8 mi NNE 13.8 mph - 0.00 in Rain Light Freezing Rain
12:52 PM 30.0 °F 19.5 °F 28.9 °F 96% 29.95 in 1.8 mi NNE 13.8 mph - 0.00 in Rain Light Freezing Rain
1:01 PM 30.0 °F 20.5 °F 28.0 °F 92% 29.91 in 2.0 mi NE 11.5 mph - 0.00 in   Overcast
1:52 PM 30.9 °F 22.2 °F 28.9 °F 92% 29.93 in 2.5 mi NNE 10.4 mph - 0.00 in   Overcast
2:15 PM 30.0 °F 19.5 °F 28.0 °F 92% 29.91 in 2.0 mi NNE 13.8 mph - 0.00 in Rain Light Freezing Rain
2:31 PM 30.0 °F 19.5 °F 28.0 °F 92% 29.90 in 2.5 mi NNE 13.8 mph - 0.00 in   Overcast
2:52 PM 30.0 °F 20.0 °F 28.0 °F 92% 29.92 in 2.5 mi NNE 12.7 mph - 0.00 in   Overcast
3:01 PM 30.0 °F 19.5 °F 28.0 °F 92% 29.89 in 3.0 mi NNE 13.8 mph - N/A   Overcast
3:16 PM 30.0 °F 21.7 °F 28.9 °F 96% 29.90 in 2.5 mi NNE 9.2 mph - N/A   Overcast
3:32 PM 30.0 °F 21.1 °F 28.0 °F 92% 29.90 in 3.0 mi NNE 10.4 mph - N/A   Overcast
3:52 PM 30.0 °F 20.5 °F 28.0 °F 92% 29.93 in 3.0 mi NNE 11.5 mph - N/A   Overcast
4:52 PM 28.9 °F 18.6 °F 28.0 °F 96% 29.92 in 2.5 mi NNE 12.7 mph - N/A   Overcast
5:22 PM 28.9 °F 19.8 °F 28.0 °F 96% 29.90 in 3.0 mi NNE 10.4 mph - N/A   Overcast
5:36 PM 28.9 °F 19.2 °F 27.0 °F 92% 29.90 in 2.5 mi NNE 11.5 mph - N/A   Overcast
5:45 PM 28.9 °F 19.8 °F 28.0 °F 96% 29.90 in 4.0 mi NE 10.4 mph - N/A   Overcast
5:52 PM 28.9 °F 19.8 °F 27.0 °F 92% 29.92 in 4.0 mi NNE 10.4 mph - N/A   Overcast
6:34 PM 28.9 °F 19.2 °F 27.0 °F 92% 29.90 in 2.5 mi NNE 11.5 mph - N/A   Overcast
6:52 PM 28.0 °F 18.6 °F 27.0 °F 96% 29.92 in 2.5 mi NNE 10.4 mph - N/A   Overcast
7:50 PM 28.4 °F 20.4 °F 26.6 °F 93% 29.89 in 1.8 mi NNE 8.1 mph - N/A   Overcast
7:52 PM 28.0 °F 20.0 °F 27.0 °F 96% 29.91 in 1.8 mi NE 8.1 mph - N/A   Overcast
8:01 PM 28.0 °F 19.3 °F 27.0 °F 96% 29.89 in 2.0 mi NNE 9.2 mph - N/A   Overcast
8:10 PM 28.0 °F 18.6 °F 27.0 °F 96% 29.89 in 2.0 mi NNE 10.4 mph - 0.00 in Rain Light Freezing Rain
8:21 PM 28.0 °F 20.0 °F 27.0 °F 96% 29.89 in 2.0 mi NNE 8.1 mph - 0.00 in   Overcast
8:52 PM 28.0 °F 20.0 °F 27.0 °F 96% 29.91 in 2.0 mi NNE 8.1 mph - 0.00 in   Overcast
9:52 PM 28.0 °F 20.0 °F 27.0 °F 96% 29.87 in 2.0 mi ENE 8.1 mph - 0.00 in   Overcast
10:52 PM 28.0 °F 20.8 °F 27.0 °F 96% 29.88 in 2.5 mi North 6.9 mph - N/A   Overcast
11:15 PM 28.0 °F 18.6 °F 27.0 °F 96% 29.87 in 1.8 mi North 10.4 mph - N/A   Overcast
11:37 PM 28.0 °F 17.0 °F 27.0 °F 96% 29.86 in 2.0 mi North 13.8 mph - 0.00 in Rain Light Freezing Rain
11:48 PM 28.4 °F 17.5 °F 26.6 °F 93% 29.86 in 1.8 mi North 13.8 mph - 0.00 in Rain Light Freezing Rain
11:52 PM 28.0 °F 17.5 °F 27.0 °F 96% 29.88 in 1.8 mi North 12.7 mph - 0.00 in Rain Light Freezing Rain